User: anonymous   Login
Location: Brno
(49.2000°N, 16.6330°E)
Time: 17:32:53
(UTC+02:00)
Language:

Cosmos 2227 - Orbit

View from above orbital plane
View from above orbital plane
View from above satellite
View from above satellite

Ground track
Ground track

The orbit data is extracted from the following two-line orbital elements,

1 22284U 92093A   15117.14213506  .00000269  00000-0  16869-3 0  9998
2 22284 070.9767 074.8534 0020343 273.5838 086.2956 14.13213636152155
Epoch (UTC): 27 April 2015 03:24:40
Eccentricity: 0.0020343
inclination: 70.9767°
perigee height: 833 km
apogee height: 863 km
right ascension of ascending node: 74.8534°
argument of perigee: 273.5838°
revolutions per day: 14.13213636
mean anomaly at epoch: 86.2956°
orbit number at epoch: 15215

The dashed part of the orbit path shows where the satellite is in the earth's shadow,  

DLR